This is the latest recevied weather packets stored in our database for station/object DH6PF-10. If no packets are shown the sender has not sent any weather packets the latest 10 day(s).
| Time | Temp. | Humidity | Pressure | Rain* | Wind** | Luminosity | Snow |
|---|---|---|---|---|---|---|---|
| 1787640710 | 15.56° C | 77% | 1015.3 hPa | - | - | - | - |
| 1787640110 | 14.44° C | 77% | 1015.4 hPa | - | - | - | - |
| 1787639510 | 13.89° C | 83% | 1015.7 hPa | - | - | - | - |
| 1787638910 | 13.33° C | 84% | 1015.4 hPa | - | - | - | - |
| 1787638310 | 12.78° C | 86% | 1015.3 hPa | - | - | - | - |
| 1787637710 | 12.22° C | 89% | 1015.5 hPa | - | - | - | - |
| 1787637110 | 12.22° C | 88% | 1015.5 hPa | - | - | - | - |
| 1787636510 | 11.67° C | 90% | 1015.5 hPa | - | - | - | - |
| 1787635910 | 11.11° C | 91% | 1015.4 hPa | - | - | - | - |
| 1787635310 | 11.11° C | 91% | 1015.4 hPa | - | - | - | - |
| 1787634710 | 11.11° C | 91% | 1015.3 hPa | - | - | - | - |
| 1787634110 | 11.11° C | 91% | 1015.1 hPa | - | - | - | - |
| 1787633510 | 11.11° C | 91% | 1014.9 hPa | - | - | - | - |
| 1787632910 | 11.11° C | 91% | 1015.2 hPa | - | - | - | - |
| 1787632310 | 11.11° C | 91% | 1015.4 hPa | - | - | - | - |
| 1787631710 | 11.11° C | 91% | 1015.3 hPa | - | - | - | - |
| 1787631110 | 11.11° C | 90% | 1015.3 hPa | - | - | - | - |
| 1787630510 | 11.11° C | 90% | 1015.3 hPa | - | - | - | - |
| 1787629910 | 11.67° C | 90% | 1015.2 hPa | - | - | - | - |
| 1787629310 | 11.67° C | 89% | 1015.6 hPa | - | - | - | - |
| 1787628710 | 11.11° C | 89% | 1015.6 hPa | - | - | - | - |
| 1787628110 | 11.11° C | 91% | 1015.5 hPa | - | - | - | - |
| 1787627510 | 11.11° C | 90% | 1015.4 hPa | - | - | - | - |
| 1787626910 | 11.11° C | 90% | 1015.2 hPa | - | - | - | - |
| 1787626310 | 11.11° C | 90% | 1015.7 hPa | - | - | - | - |
* Rain since midnight (hover to see other rain measurements)
** Current wind speed in m/s (hover to see current wind gust speed)